Weather History for Key West, FL

Change the Weather History Date:

Friday, August 2, 2013

  Actual Average Record
Temperature  
Mean Temperature 84 °F 85 °F  
Max Temperature 88 °F 90 °F 95 °F (1883)
Min Temperature 79 °F 80 °F 69 °F (1901)
Degree Days  
Heating Degree Days 0 0  
Month to date heating degree days 0 0  
Since 1 June heating degree days 0 0  
Since 1 July heating degree days 0 0  
Cooling Degree Days 19 20  
Month to date cooling degree days 40 40  
Year to date cooling degree days 2783 2625  
Since 1 June cooling degree days 1154 1195  
Growing Degree Days 34 (Base 50)    
Moisture  
Dew Point 75 °F    
Average Humidity 74    
Maximum Humidity 85    
Minimum Humidity 63    
Precipitation  
Precipitation 0.01 in 0.14 in 2.49 in (1999)
Month to date precipitation 0.01 0.27  
Year to date precipitation 31.14 18.56  
Snow  
Snow 0.00 in - - ()
Month to date snowfall 0.0  
Since 1 June snowfall 0.0  
Since 1 July snowfall 0.0  
Snow Depth 0.00 in    
Sea Level Pressure  
Sea Level Pressure 30.01 in    
Wind  
Wind Speed 5 mph (SSE)    
Max Wind Speed 12 mph    
Max Gust Speed 14 mph    
Visibility 9 miles    
Events Rain    
T = Trace of Precipitation, MM = Missing Value Source: NWS Daily Summary

Daily Weather History Graph

Daily Weather History Graph

Search for Another Location

Airport:

Trip Planner

Search our weather history database for the weather conditions in past years. The results will help you decide how hot, cold, wet, or windy it might be!

Date:

Astronomy

Aug. 02, 2013 Rise Set
Actual Time 6:55 AM EDT 8:10 PM EDT
Civil Twilight 6:31 AM EDT 8:34 PM EDT
Nautical Twilight 6:02 AM EDT 9:03 PM EDT
Astronomical Twilight 5:32 AM EDT 9:33 PM EDT
Moon 3:20 AM EDT (8/2) 5:02 PM EDT (8/2)
Length of Visible Light 14h 03m
Length of Day
13h 14m
Waning Crescent, 16% of the Moon is Illuminated
Aug 2
Waning Crescent
Aug 6
New
Aug 14
First Quarter
Aug 20
Full
Aug 28
Last Quarter

Hourly Weather History & Observations

Time (EDT) Temp. Heat Index Dew Point Humidity Pressure Visibility Wind Dir Wind Speed Gust Speed Precip Events Conditions
12:53 AM 82.9 °F 90.2 °F 75.0 °F 77% 29.98 in 10.0 mi ENE 3.5 mph - N/A   Partly Cloudy
1:14 AM 82.4 °F 89.5 °F 75.2 °F 79% 29.98 in 9.0 mi East 6.9 mph - 0.00 in Rain Light Rain
1:22 AM 80.6 °F 86.2 °F 75.2 °F 84% 29.98 in 6.0 mi NE 3.5 mph - 0.01 in Rain Light Rain
1:34 AM 80.6 °F 86.2 °F 75.2 °F 84% 29.98 in 10.0 mi ESE 8.1 mph - 0.01 in Rain Light Rain
1:53 AM 82.0 °F 88.6 °F 75.0 °F 79% 29.97 in 10.0 mi SE 9.2 mph - 0.01 in   Mostly Cloudy
2:53 AM 82.0 °F 87.9 °F 73.9 °F 76% 29.95 in 10.0 mi ESE 4.6 mph - N/A   Clear
3:53 AM 82.9 °F 89.4 °F 73.9 °F 74% 29.96 in 10.0 mi Calm Calm - N/A   Clear
4:53 AM 82.0 °F 87.9 °F 73.9 °F 76% 29.94 in 10.0 mi SSE 4.6 mph - N/A   Clear
5:53 AM 80.1 °F 84.5 °F 73.9 °F 81% 29.95 in 10.0 mi Calm Calm - N/A   Clear
6:53 AM 80.1 °F 85.1 °F 75.0 °F 85% 29.97 in 10.0 mi Calm Calm - N/A   Clear
7:53 AM 82.9 °F 89.4 °F 73.9 °F 74% 29.98 in 10.0 mi SSW 4.6 mph - N/A   Partly Cloudy
8:53 AM 84.0 °F 92.6 °F 75.9 °F 76% 29.99 in 10.0 mi SSW 4.6 mph - N/A   Clear
9:53 AM 84.9 °F 92.1 °F 73.9 °F 69% 30.01 in 10.0 mi South 4.6 mph - N/A   Partly Cloudy
10:53 AM 84.9 °F 93.3 °F 75.0 °F 72% 30.04 in 10.0 mi South 4.6 mph - N/A   Partly Cloudy
11:53 AM 86.0 °F 95.1 °F 75.0 °F 70% 30.04 in 10.0 mi SE 3.5 mph - N/A   Clear
12:53 PM 87.1 °F 95.4 °F 73.9 °F 65% 30.04 in 10.0 mi South 5.8 mph - N/A   Clear
1:53 PM 87.1 °F 96.3 °F 75.0 °F 67% 30.04 in 10.0 mi South 5.8 mph - N/A   Partly Cloudy
2:53 PM 87.1 °F 96.3 °F 75.0 °F 67% 30.02 in 10.0 mi South 5.8 mph - N/A   Clear
3:53 PM 88.0 °F 96.5 °F 73.9 °F 63% 30.01 in 4.0 mi SSW 8.1 mph - N/A   Haze
4:53 PM 87.1 °F 96.3 °F 75.0 °F 67% 30.01 in 5.0 mi SSW 6.9 mph - N/A   Haze
5:53 PM 86.0 °F 95.1 °F 75.0 °F 70% 30.01 in 10.0 mi South 5.8 mph - N/A   Clear
6:53 PM 84.9 °F 91.4 °F 73.0 °F 67% 30.02 in 10.0 mi South 4.6 mph - N/A   Mostly Cloudy
7:08 PM 84.2 °F 90.9 °F 73.4 °F 70% 30.02 in 10.0 mi Variable 4.6 mph - N/A   Partly Cloudy
7:53 PM 84.9 °F 92.1 °F 73.9 °F 69% 30.04 in 10.0 mi SSE 5.8 mph - N/A   Clear
8:53 PM 84.9 °F 93.3 °F 75.0 °F 72% 30.05 in 10.0 mi South 8.1 mph - N/A   Clear
9:53 PM 84.9 °F 93.3 °F 75.0 °F 72% 30.06 in 10.0 mi SE 4.6 mph - N/A   Clear
10:53 PM 84.9 °F 92.1 °F 73.9 °F 69% 30.08 in 10.0 mi South 5.8 mph - N/A   Clear
11:53 PM 84.0 °F 91.9 °F 75.0 °F 74% 30.08 in 10.0 mi South 8.1 mph - N/A   Clear